KAL9985 RKSI-UDYZ

Flight info

Callsign KAL9985
Flight time N/A
Altitude 34000
Route BINIL Y697 AGAVO/K0900S1040 A591 IKEKA W4 HCH W200 DOVIV W55 PAMRU W34 VYK B215 LEBOM W104 VEXEB W47 IDSOT W48 LAVOM/K0889S1100 W48 DKO W66 NUKTI B215 FKG A368 SARIN/K0867F360 N161 GOMAL/K0872F380 N161 GASBI/N0476F380 N161 LEYLA/N0482F400 T916 SEVAN
Aircraft B77W/H-SDE1E2E3FGHIJ2J3J4J5M1RWXY/LB1D1

Departure

Time N/A
Airport Incheon International Airport (RKSI)

Arrival

Time 2026-05-07 13:07
Airport Zvartnots International Airport (UDYZ)
Time Latitude Longitude Altitude Speed Heading
2026-05-07 09:38 47.41254 76.07658 35947 ft 449 kts 277°
2026-05-07 09:38 47.41681 76.03101 35950 ft 449 kts 277°
2026-05-07 09:39 47.42531 75.93966 35947 ft 449 kts 277°
2026-05-07 09:39 47.43374 75.84833 35951 ft 449 kts 277°
2026-05-07 09:40 47.44210 75.75695 35955 ft 449 kts 277°
2026-05-07 09:40 47.45039 75.66547 35947 ft 449 kts 277°
2026-05-07 09:41 47.45856 75.57458 35951 ft 449 kts 277°
2026-05-07 09:41 47.46672 75.48290 35951 ft 449 kts 277°
2026-05-07 09:42 47.47480 75.39123 35959 ft 449 kts 277°
2026-05-07 09:42 47.48280 75.29959 35953 ft 449 kts 277°
2026-05-07 09:43 47.49073 75.20795 35958 ft 449 kts 277°
2026-05-07 09:43 47.49859 75.11628 35958 ft 449 kts 277°
2026-05-07 09:44 47.50637 75.02463 35961 ft 449 kts 277°
2026-05-07 09:44 47.51403 74.93352 35966 ft 449 kts 277°
2026-05-07 09:45 47.52166 74.84184 35967 ft 449 kts 276°
2026-05-07 09:45 47.52922 74.75017 35972 ft 448 kts 276°
2026-05-07 09:46 47.53669 74.65854 35975 ft 448 kts 276°
2026-05-07 09:46 47.54405 74.56746 35974 ft 447 kts 276°
2026-05-07 09:47 47.55136 74.47606 35968 ft 446 kts 276°
2026-05-07 09:47 47.55858 74.38489 35971 ft 445 kts 276°
2026-05-07 09:48 47.56567 74.29441 35976 ft 445 kts 276°
2026-05-07 09:48 47.57272 74.20340 35968 ft 444 kts 276°
2026-05-07 09:49 47.57972 74.11216 36313 ft 446 kts 276°
2026-05-07 09:49 47.58319 74.06654 36699 ft 445 kts 276°
2026-05-07 09:49 47.58663 74.02113 37071 ft 443 kts 276°
2026-05-07 09:49 47.59005 73.97577 37415 ft 443 kts 276°
2026-05-07 09:50 47.59344 73.93045 37721 ft 443 kts 276°
2026-05-07 09:50 47.59682 73.88506 37901 ft 444 kts 276°
2026-05-07 09:50 47.60021 73.83939 37942 ft 446 kts 276°
2026-05-07 09:51 47.60690 73.74825 37954 ft 443 kts 275°
2026-05-07 09:51 47.61344 73.65833 37967 ft 440 kts 275°
2026-05-07 09:52 47.61990 73.56841 37966 ft 438 kts 275°
2026-05-07 09:52 47.62629 73.47855 37965 ft 437 kts 275°
2026-05-07 09:53 47.63259 73.38883 37966 ft 438 kts 275°
2026-05-07 09:53 47.63885 73.29882 37966 ft 440 kts 275°
2026-05-07 09:54 47.64506 73.20839 37964 ft 441 kts 275°
2026-05-07 09:54 47.65121 73.11775 37970 ft 442 kts 275°
2026-05-07 09:55 47.65726 73.02760 37961 ft 443 kts 275°
2026-05-07 09:55 47.66329 72.93660 37969 ft 443 kts 275°
2026-05-07 09:56 47.66924 72.84567 37962 ft 443 kts 274°
2026-05-07 09:56 47.67513 72.75468 37965 ft 442 kts 274°
2026-05-07 09:57 47.68092 72.66390 37963 ft 441 kts 274°
2026-05-07 09:57 47.68664 72.57321 37963 ft 441 kts 274°
2026-05-07 09:58 47.69227 72.48270 37966 ft 440 kts 274°
2026-05-07 09:58 47.69783 72.39229 37958 ft 439 kts 274°
2026-05-07 09:59 47.70331 72.30211 37966 ft 438 kts 274°
2026-05-07 09:59 47.70870 72.21197 37961 ft 438 kts 274°
2026-05-07 10:00 47.71402 72.12193 37960 ft 438 kts 274°
2026-05-07 10:00 47.71924 72.03240 37956 ft 437 kts 273°
2026-05-07 10:01 47.72441 71.94239 37954 ft 437 kts 273°
2026-05-07 10:01 47.72953 71.85230 37941 ft 437 kts 273°
2026-05-07 10:02 47.73408 71.76216 37942 ft 437 kts 272°
2026-05-07 10:02 47.73771 71.67201 37937 ft 437 kts 272°
2026-05-07 10:03 47.74125 71.58226 37938 ft 438 kts 271°
2026-05-07 10:03 47.74485 71.49184 37937 ft 438 kts 271°
2026-05-07 10:04 47.74844 71.40146 37938 ft 438 kts 271°
2026-05-07 10:04 47.75197 71.31099 37938 ft 439 kts 271°
2026-05-07 10:05 47.75542 71.22052 37935 ft 439 kts 271°
2026-05-07 10:05 47.75880 71.12996 37932 ft 439 kts 271°
2026-05-07 10:06 47.76210 71.03950 37934 ft 438 kts 271°
2026-05-07 10:06 47.76533 70.94896 37937 ft 438 kts 271°
2026-05-07 10:07 47.76849 70.85856 37938 ft 438 kts 271°
2026-05-07 10:07 47.77156 70.76872 37935 ft 438 kts 271°
2026-05-07 10:08 47.77459 70.67822 37927 ft 438 kts 271°
2026-05-07 10:08 47.77754 70.58764 37929 ft 438 kts 271°
2026-05-07 10:09 47.78041 70.49713 37928 ft 438 kts 271°
2026-05-07 10:09 47.78322 70.40662 37926 ft 438 kts 271°
2026-05-07 10:10 47.78596 70.31607 37927 ft 438 kts 271°
2026-05-07 10:10 47.78863 70.22546 37923 ft 438 kts 271°
2026-05-07 10:11 47.79123 70.13493 37924 ft 438 kts 271°
2026-05-07 10:11 47.79376 70.04436 37919 ft 438 kts 271°
2026-05-07 10:12 47.79620 69.95424 37919 ft 438 kts 270°
2026-05-07 10:12 47.79858 69.86366 37920 ft 438 kts 270°
2026-05-07 10:13 47.80090 69.77306 37918 ft 439 kts 270°
2026-05-07 10:13 47.80314 69.68236 37921 ft 439 kts 270°
2026-05-07 10:14 47.80532 69.59168 37919 ft 439 kts 270°
2026-05-07 10:14 47.80742 69.50090 37923 ft 439 kts 270°
2026-05-07 10:15 47.80945 69.41017 37923 ft 439 kts 270°
2026-05-07 10:15 47.81141 69.31930 37925 ft 439 kts 270°
2026-05-07 10:16 47.81331 69.22848 37922 ft 439 kts 270°
2026-05-07 10:16 47.81513 69.13754 37930 ft 439 kts 270°
2026-05-07 10:17 47.81688 69.04663 37926 ft 439 kts 270°
2026-05-07 10:17 47.81828 68.97115 37925 ft 439 kts 270°
2026-05-07 10:18 47.82017 68.86523 37927 ft 438 kts 270°
2026-05-07 10:18 47.81795 68.77535 37932 ft 437 kts 262°
2026-05-07 10:19 47.81092 68.70045 37935 ft 436 kts 261°
2026-05-07 10:19 47.80241 68.61112 37929 ft 436 kts 261°
2026-05-07 10:20 47.79410 68.52244 37932 ft 435 kts 261°
2026-05-07 10:20 47.78578 68.43327 37938 ft 435 kts 261°
2026-05-07 10:21 47.77743 68.34426 37932 ft 434 kts 261°
2026-05-07 10:21 47.76901 68.25531 37933 ft 434 kts 261°
2026-05-07 10:22 47.76053 68.16651 37938 ft 434 kts 261°
2026-05-07 10:22 47.75198 68.07779 37937 ft 433 kts 261°
2026-05-07 10:23 47.74338 67.98922 37937 ft 433 kts 261°
2026-05-07 10:23 47.73477 67.90124 37936 ft 433 kts 261°
2026-05-07 10:24 47.72605 67.81284 37940 ft 433 kts 261°
2026-05-07 10:24 47.71591 67.72471 37938 ft 432 kts 257°
2026-05-07 10:25 47.70298 67.63759 37940 ft 432 kts 257°
2026-05-07 10:25 47.68981 67.55046 37942 ft 433 kts 257°
2026-05-07 10:26 47.67672 67.46324 37937 ft 433 kts 257°
2026-05-07 10:26 47.66361 67.37590 37939 ft 433 kts 257°
2026-05-07 10:27 47.65047 67.28870 37934 ft 433 kts 257°
2026-05-07 10:27 47.63733 67.20192 37935 ft 433 kts 257°
2026-05-07 10:28 47.62404 67.11471 37937 ft 433 kts 257°
2026-05-07 10:28 47.61069 67.02762 37932 ft 433 kts 257°
2026-05-07 10:29 47.59738 66.94121 37935 ft 433 kts 257°
2026-05-07 10:29 47.58394 66.85440 37934 ft 432 kts 257°
2026-05-07 10:30 47.56364 66.72407 37935 ft 432 kts 256°
2026-05-07 10:30 47.54962 66.63748 37935 ft 432 kts 256°
2026-05-07 10:31 47.53524 66.55093 37931 ft 432 kts 256°
2026-05-07 10:31 47.52095 66.46501 37934 ft 433 kts 255°
2026-05-07 10:32 47.50655 66.37856 37934 ft 433 kts 255°
2026-05-07 10:32 47.49208 66.29202 37934 ft 433 kts 255°
2026-05-07 10:33 47.47754 66.20550 37929 ft 433 kts 255°
2026-05-07 10:33 47.46292 66.11900 37935 ft 433 kts 255°
2026-05-07 10:34 47.44835 66.03314 37931 ft 434 kts 255°
2026-05-07 10:34 47.43360 65.94668 37934 ft 434 kts 255°
2026-05-07 10:35 47.41879 65.86021 37927 ft 434 kts 255°
2026-05-07 10:35 47.40419 65.77374 37929 ft 434 kts 255°
2026-05-07 10:36 47.38995 65.68753 37924 ft 434 kts 255°
2026-05-07 10:36 47.37558 65.60101 37925 ft 434 kts 255°
2026-05-07 10:37 47.36109 65.51451 37922 ft 434 kts 255°
2026-05-07 10:37 47.34654 65.42819 37924 ft 433 kts 255°
2026-05-07 10:38 47.33202 65.34250 37915 ft 433 kts 255°
2026-05-07 10:38 47.31736 65.25640 37915 ft 432 kts 255°
2026-05-07 10:39 47.30268 65.17053 37910 ft 432 kts 255°
2026-05-07 10:39 47.28794 65.08476 37911 ft 431 kts 255°
2026-05-07 10:40 47.27314 64.99903 37901 ft 431 kts 255°
2026-05-07 10:40 47.25846 64.91406 37902 ft 431 kts 255°
2026-05-07 10:41 47.24367 64.82867 37891 ft 430 kts 255°
2026-05-07 10:41 47.22882 64.74327 37889 ft 430 kts 255°
2026-05-07 10:42 47.21392 64.65806 37886 ft 430 kts 255°
2026-05-07 10:42 47.19898 64.57292 37887 ft 430 kts 255°
2026-05-07 10:43 47.18397 64.48791 37887 ft 429 kts 254°
2026-05-07 10:43 47.16891 64.40294 37927 ft 430 kts 253°
2026-05-07 10:44 47.15386 64.31846 37891 ft 430 kts 253°
2026-05-07 10:44 47.13868 64.23355 37878 ft 430 kts 253°
2026-05-07 10:45 47.12342 64.14862 37881 ft 430 kts 253°
2026-05-07 10:45 47.10813 64.06388 37878 ft 429 kts 252°
2026-05-07 10:46 47.09278 63.97918 37872 ft 429 kts 252°
2026-05-07 10:46 47.07736 63.89454 37875 ft 429 kts 252°
2026-05-07 10:47 47.06188 63.80996 37873 ft 430 kts 252°
2026-05-07 10:47 47.04633 63.72537 37876 ft 430 kts 252°
2026-05-07 10:48 47.03069 63.64067 37869 ft 430 kts 252°
2026-05-07 10:48 47.01498 63.55601 37870 ft 431 kts 252°
2026-05-07 10:49 46.99920 63.47131 37870 ft 431 kts 252°
2026-05-07 10:49 46.98332 63.38649 37867 ft 432 kts 252°
2026-05-07 10:50 46.96739 63.30179 37856 ft 432 kts 252°
2026-05-07 10:50 46.95138 63.21703 37851 ft 432 kts 252°
2026-05-07 10:51 46.93531 63.13232 37871 ft 432 kts 251°
2026-05-07 10:51 46.91918 63.04772 37879 ft 432 kts 251°
2026-05-07 10:52 46.90297 62.96305 37876 ft 432 kts 251°
2026-05-07 10:52 46.88670 62.87846 37856 ft 432 kts 251°
2026-05-07 10:53 46.87037 62.79390 37863 ft 432 kts 251°
2026-05-07 10:53 46.85398 62.70941 37858 ft 432 kts 251°
2026-05-07 10:54 46.83763 62.62538 37865 ft 433 kts 251°
2026-05-07 10:54 46.82108 62.54086 37856 ft 433 kts 251°
2026-05-07 10:55 46.80443 62.45630 37859 ft 433 kts 251°
2026-05-07 10:55 46.78773 62.37181 37855 ft 433 kts 251°
2026-05-07 10:56 46.77096 62.28729 37857 ft 434 kts 251°
2026-05-07 10:56 46.75413 62.20278 37852 ft 434 kts 251°
2026-05-07 10:57 46.73721 62.11824 37861 ft 434 kts 251°
2026-05-07 10:57 46.72024 62.03377 37861 ft 434 kts 250°
2026-05-07 10:58 46.70321 61.94936 37859 ft 434 kts 250°
2026-05-07 10:58 46.68611 61.86499 37861 ft 434 kts 250°
2026-05-07 10:59 46.66906 61.78119 37858 ft 435 kts 250°
2026-05-07 10:59 46.65182 61.69684 37859 ft 435 kts 250°
2026-05-07 11:00 46.63452 61.61251 37858 ft 435 kts 250°
2026-05-07 11:00 46.61712 61.52813 37858 ft 436 kts 250°
2026-05-07 11:01 46.59964 61.44366 37859 ft 436 kts 250°
2026-05-07 11:01 46.58208 61.35917 37862 ft 437 kts 250°
2026-05-07 11:02 46.56443 61.27459 37865 ft 437 kts 250°
2026-05-07 11:02 46.54670 61.19001 37865 ft 438 kts 250°
2026-05-07 11:03 46.52891 61.10544 37862 ft 438 kts 250°
2026-05-07 11:03 46.51103 61.02083 37866 ft 438 kts 250°
2026-05-07 11:04 46.49310 60.93637 37873 ft 438 kts 249°
2026-05-07 11:04 46.47511 60.85192 37869 ft 438 kts 249°
2026-05-07 11:05 46.45702 60.76736 37868 ft 438 kts 249°
2026-05-07 11:05 46.43889 60.68298 37872 ft 438 kts 249°
2026-05-07 11:06 46.42071 60.59869 37854 ft 438 kts 249°
2026-05-07 11:06 46.40258 60.51500 37860 ft 438 kts 249°
2026-05-07 11:07 46.38425 60.43071 37863 ft 439 kts 249°
2026-05-07 11:07 46.36585 60.34642 37868 ft 439 kts 249°
2026-05-07 11:08 46.34736 60.26208 37873 ft 440 kts 249°
2026-05-07 11:08 46.33192 60.19191 37879 ft 440 kts 249°
2026-05-07 11:09 46.31326 60.10743 37871 ft 441 kts 249°
2026-05-07 11:09 46.29452 60.02292 37876 ft 442 kts 249°
2026-05-07 11:10 46.27570 59.93836 37881 ft 442 kts 249°
2026-05-07 11:10 46.25680 59.85375 37884 ft 442 kts 249°
2026-05-07 11:11 46.23785 59.76922 37883 ft 442 kts 249°
2026-05-07 11:11 46.21880 59.68481 37883 ft 442 kts 249°
2026-05-07 11:12 46.19958 59.60060 37887 ft 441 kts 249°
2026-05-07 11:12 46.18043 59.51708 37891 ft 441 kts 249°
2026-05-07 11:13 46.16114 59.43314 37890 ft 441 kts 249°
2026-05-07 11:13 46.14182 59.34935 37896 ft 440 kts 249°
2026-05-07 11:14 46.12244 59.26562 37893 ft 440 kts 249°
2026-05-07 11:14 46.10302 59.18204 37900 ft 440 kts 249°
2026-05-07 11:15 46.08354 59.09851 37903 ft 440 kts 249°
2026-05-07 11:15 46.06399 59.01504 37903 ft 440 kts 249°
2026-05-07 11:16 46.04439 58.93164 37903 ft 440 kts 249°
2026-05-07 11:16 46.02473 58.84832 37908 ft 440 kts 249°
2026-05-07 11:17 46.00503 58.76511 37908 ft 440 kts 249°
2026-05-07 11:17 45.98524 58.68187 37913 ft 440 kts 249°
2026-05-07 11:18 45.96537 58.59862 37915 ft 440 kts 249°
2026-05-07 11:18 45.94545 58.51543 37918 ft 440 kts 249°
2026-05-07 11:19 45.92558 58.43281 37922 ft 441 kts 249°
2026-05-07 11:19 45.90551 58.34961 37923 ft 441 kts 249°
2026-05-07 11:20 45.88537 58.26645 37925 ft 441 kts 249°
2026-05-07 11:20 45.86516 58.18331 37926 ft 441 kts 249°
2026-05-07 11:21 45.84487 58.10016 37929 ft 442 kts 249°
2026-05-07 11:21 45.82453 58.01708 37937 ft 441 kts 248°
2026-05-07 11:22 45.80412 57.93405 37931 ft 441 kts 248°
2026-05-07 11:22 45.78367 57.85114 37935 ft 441 kts 248°
2026-05-07 11:23 45.76315 57.76823 37935 ft 441 kts 248°
2026-05-07 11:23 45.74259 57.68545 37938 ft 441 kts 248°
2026-05-07 11:24 45.72197 57.60278 37938 ft 441 kts 248°
2026-05-07 11:24 45.70129 57.52019 37939 ft 441 kts 248°
2026-05-07 11:25 45.68056 57.43760 37936 ft 441 kts 248°
2026-05-07 11:25 45.65976 57.35501 37938 ft 441 kts 248°
2026-05-07 11:26 45.63893 57.27260 37927 ft 441 kts 248°
2026-05-07 11:26 45.61801 57.19014 37948 ft 441 kts 248°
2026-05-07 11:27 45.59704 57.10775 37950 ft 441 kts 248°
2026-05-07 11:27 45.57599 57.02538 37931 ft 441 kts 248°
2026-05-07 11:28 45.55491 56.94314 37939 ft 441 kts 248°
2026-05-07 11:28 45.53375 56.86089 37938 ft 442 kts 248°
2026-05-07 11:29 45.51252 56.77870 37935 ft 442 kts 248°
2026-05-07 11:29 45.49122 56.69650 37935 ft 442 kts 248°
2026-05-07 11:30 45.46987 56.61437 37936 ft 442 kts 248°
2026-05-07 11:30 45.44857 56.53276 37941 ft 442 kts 248°
2026-05-07 11:31 45.42707 56.45065 37935 ft 442 kts 248°
2026-05-07 11:31 45.40553 56.36869 37937 ft 442 kts 248°
2026-05-07 11:32 45.37310 56.24580 37937 ft 442 kts 248°
2026-05-07 11:33 45.35141 56.16399 37938 ft 442 kts 248°
2026-05-07 11:33 45.32967 56.08223 37938 ft 442 kts 248°
2026-05-07 11:34 45.30787 56.00058 37941 ft 442 kts 248°
2026-05-07 11:34 45.28603 55.91903 37937 ft 442 kts 248°
2026-05-07 11:35 45.26412 55.83747 37942 ft 442 kts 248°
2026-05-07 11:35 45.24213 55.75594 37945 ft 442 kts 248°
2026-05-07 11:36 45.22011 55.67455 37943 ft 442 kts 248°
2026-05-07 11:36 45.19804 55.59327 37942 ft 442 kts 248°
2026-05-07 11:37 45.17591 55.51200 37944 ft 442 kts 248°
2026-05-07 11:37 45.15372 55.43081 37946 ft 442 kts 248°
2026-05-07 11:38 45.13150 55.34973 37950 ft 442 kts 248°
2026-05-07 11:38 45.10921 55.26871 37948 ft 441 kts 248°
2026-05-07 11:39 45.08135 55.19176 37961 ft 440 kts 235°
2026-05-07 11:39 45.04274 55.12473 37944 ft 441 kts 225°
2026-05-07 11:40 44.99754 55.06613 37949 ft 441 kts 223°
2026-05-07 11:40 44.95217 55.00849 37951 ft 442 kts 223°
2026-05-07 11:41 44.90674 54.95019 37954 ft 442 kts 224°
2026-05-07 11:41 44.86138 54.89171 37952 ft 442 kts 224°
2026-05-07 11:42 44.81603 54.83331 37954 ft 442 kts 224°
2026-05-07 11:42 44.77061 54.77497 37955 ft 442 kts 224°
2026-05-07 11:43 44.72518 54.71674 37958 ft 442 kts 224°
2026-05-07 11:43 44.67991 54.65839 37958 ft 441 kts 226°
2026-05-07 11:44 44.64001 54.59319 37957 ft 440 kts 235°
2026-05-07 11:44 44.60513 54.52258 37965 ft 440 kts 236°
2026-05-07 11:45 44.57029 54.45211 37965 ft 440 kts 235°
2026-05-07 11:45 44.53529 54.38181 37965 ft 439 kts 235°
2026-05-07 11:46 44.50044 54.31220 37971 ft 439 kts 235°
2026-05-07 11:46 44.46531 54.24223 37969 ft 439 kts 235°
2026-05-07 11:47 44.43016 54.17239 37976 ft 439 kts 235°
2026-05-07 11:47 44.39498 54.10266 37978 ft 438 kts 235°
2026-05-07 11:48 44.35980 54.03309 37976 ft 438 kts 235°
2026-05-07 11:48 44.32462 53.96367 37982 ft 438 kts 235°
2026-05-07 11:49 44.28942 53.89440 37979 ft 437 kts 235°
2026-05-07 11:49 44.25421 53.82526 37985 ft 437 kts 235°
2026-05-07 11:50 44.21899 53.75627 37982 ft 436 kts 235°
2026-05-07 11:50 44.18377 53.68744 37986 ft 436 kts 235°
2026-05-07 11:51 44.14853 53.61874 37989 ft 436 kts 235°
2026-05-07 11:51 44.11327 53.55016 37988 ft 436 kts 235°
2026-05-07 11:52 44.07798 53.48167 37991 ft 435 kts 235°
2026-05-07 11:52 44.04264 53.41326 37994 ft 436 kts 235°
2026-05-07 11:53 44.00747 53.34531 37992 ft 436 kts 235°
2026-05-07 11:53 43.97200 53.27697 37994 ft 436 kts 235°
2026-05-07 11:54 43.93644 53.20859 37994 ft 437 kts 235°
2026-05-07 11:54 43.90084 53.14027 37999 ft 437 kts 234°
2026-05-07 11:55 43.86514 53.07195 38001 ft 438 kts 234°
2026-05-07 11:55 43.82940 53.00366 38002 ft 438 kts 234°
2026-05-07 11:56 43.79365 52.93546 38003 ft 438 kts 234°
2026-05-07 11:56 43.75787 52.86734 38014 ft 438 kts 234°
2026-05-07 11:57 43.72204 52.79930 38009 ft 437 kts 234°
2026-05-07 11:57 43.69202 52.74237 38016 ft 437 kts 234°
2026-05-07 11:58 43.65617 52.67458 38011 ft 437 kts 234°
2026-05-07 11:58 43.62042 52.60753 38020 ft 436 kts 234°
2026-05-07 11:59 43.58436 52.54024 38021 ft 436 kts 234°
2026-05-07 11:59 43.54830 52.47306 38025 ft 436 kts 234°
2026-05-07 12:00 43.51221 52.40591 38026 ft 436 kts 234°
2026-05-07 12:00 43.47609 52.33884 38027 ft 436 kts 234°
2026-05-07 12:01 43.43994 52.27186 38035 ft 436 kts 234°
2026-05-07 12:01 43.40375 52.20497 38034 ft 436 kts 234°
2026-05-07 12:02 43.36746 52.13806 38039 ft 436 kts 234°
2026-05-07 12:02 43.33118 52.07131 38042 ft 436 kts 233°
2026-05-07 12:03 43.29489 52.00468 38045 ft 435 kts 233°
2026-05-07 12:03 43.25857 51.93815 38049 ft 435 kts 233°
2026-05-07 12:04 43.22224 51.87176 38046 ft 435 kts 233°
2026-05-07 12:04 43.18587 51.80543 38054 ft 435 kts 233°
2026-05-07 12:05 43.14973 51.73968 38057 ft 435 kts 233°
2026-05-07 12:05 43.11309 51.67317 38055 ft 435 kts 233°
2026-05-07 12:06 43.07663 51.60712 38054 ft 435 kts 233°
2026-05-07 12:06 43.04015 51.54121 38057 ft 435 kts 233°
2026-05-07 12:07 43.00362 51.47533 38060 ft 435 kts 233°
2026-05-07 12:07 42.96708 51.40958 38065 ft 434 kts 233°
2026-05-07 12:08 42.93078 51.34442 38063 ft 434 kts 233°
2026-05-07 12:08 42.89415 51.27881 38065 ft 434 kts 233°
2026-05-07 12:09 42.85753 51.21336 38070 ft 434 kts 233°
2026-05-07 12:09 42.82086 51.14796 38071 ft 434 kts 233°
2026-05-07 12:10 42.78420 51.08273 38076 ft 434 kts 233°
2026-05-07 12:10 42.74752 51.01759 38075 ft 434 kts 233°
2026-05-07 12:11 42.71079 50.95252 38076 ft 433 kts 233°
2026-05-07 12:11 42.67406 50.88757 38077 ft 433 kts 233°
2026-05-07 12:12 42.63730 50.82273 38078 ft 433 kts 233°
2026-05-07 12:12 42.60052 50.75799 38077 ft 433 kts 233°
2026-05-07 12:13 42.56398 50.69379 38079 ft 433 kts 233°
2026-05-07 12:13 42.52714 50.62923 38083 ft 433 kts 232°
2026-05-07 12:14 42.49030 50.56477 38077 ft 433 kts 232°
2026-05-07 12:14 42.45343 50.50040 38081 ft 433 kts 232°
2026-05-07 12:15 42.41697 50.43565 38076 ft 432 kts 234°
2026-05-07 12:15 42.38210 50.36928 38080 ft 432 kts 235°
2026-05-07 12:16 42.34743 50.30284 38082 ft 432 kts 235°
2026-05-07 12:16 42.31258 50.23673 38083 ft 432 kts 234°
2026-05-07 12:17 42.27756 50.17075 38082 ft 432 kts 234°
2026-05-07 12:17 42.24246 50.10486 38083 ft 432 kts 234°
2026-05-07 12:18 42.20738 50.03913 38082 ft 432 kts 234°
2026-05-07 12:18 42.17226 49.97347 38083 ft 432 kts 234°
2026-05-07 12:19 42.13710 49.90787 38084 ft 431 kts 234°
2026-05-07 12:19 42.10194 49.84241 38082 ft 431 kts 234°
2026-05-07 12:20 42.06672 49.77698 38085 ft 431 kts 234°
2026-05-07 12:20 42.03173 49.71211 38083 ft 431 kts 234°
2026-05-07 12:21 41.99645 49.64684 38085 ft 431 kts 234°
2026-05-07 12:21 41.96113 49.58166 38083 ft 431 kts 234°
2026-05-07 12:22 41.92552 49.51606 38083 ft 431 kts 234°
2026-05-07 12:22 41.89039 49.45149 38088 ft 431 kts 234°
2026-05-07 12:23 41.85497 49.38650 38086 ft 431 kts 234°
2026-05-07 12:23 41.81950 49.32156 38085 ft 432 kts 234°
2026-05-07 12:24 41.78500 49.25576 38084 ft 432 kts 236°
2026-05-07 12:24 41.75210 49.18850 38089 ft 432 kts 237°
2026-05-07 12:25 41.71910 49.12134 38088 ft 432 kts 236°
2026-05-07 12:25 41.68583 49.05442 38087 ft 432 kts 236°
2026-05-07 12:26 41.65245 48.98767 38084 ft 432 kts 236°
2026-05-07 12:26 41.61903 48.92101 38086 ft 432 kts 236°
2026-05-07 12:27 41.58560 48.85441 38087 ft 431 kts 236°
2026-05-07 12:27 41.55214 48.78788 38089 ft 431 kts 236°
2026-05-07 12:28 41.51849 48.72157 38091 ft 431 kts 235°
2026-05-07 12:28 41.48237 48.65756 38091 ft 432 kts 233°
2026-05-07 12:29 41.44598 48.59390 38097 ft 432 kts 233°
2026-05-07 12:29 41.41006 48.52981 38094 ft 432 kts 234°
2026-05-07 12:30 41.37487 48.46508 38099 ft 432 kts 234°
2026-05-07 12:30 41.33975 48.40027 38104 ft 432 kts 234°
2026-05-07 12:31 41.30449 48.33559 38097 ft 431 kts 234°
2026-05-07 12:31 41.26946 48.27158 38112 ft 431 kts 234°
2026-05-07 12:32 41.23414 48.20717 38116 ft 432 kts 234°
2026-05-07 12:32 41.19872 48.14271 38118 ft 432 kts 234°
2026-05-07 12:33 41.14540 48.04593 38125 ft 434 kts 234°
2026-05-07 12:33 41.11529 47.97667 38129 ft 435 kts 245°
2026-05-07 12:34 41.09439 47.90152 38119 ft 435 kts 254°
2026-05-07 12:34 41.08056 47.82349 38110 ft 435 kts 255°
2026-05-07 12:35 41.06716 47.74536 38126 ft 434 kts 255°
2026-05-07 12:35 41.05345 47.66731 38115 ft 435 kts 255°
2026-05-07 12:36 41.03955 47.58946 38115 ft 434 kts 255°
2026-05-07 12:36 41.02556 47.51174 38118 ft 434 kts 255°
2026-05-07 12:37 41.01153 47.43406 38119 ft 434 kts 255°
2026-05-07 12:37 40.99745 47.35645 38115 ft 433 kts 255°
2026-05-07 12:38 40.98333 47.27889 38114 ft 433 kts 255°
2026-05-07 12:38 40.96917 47.20139 38120 ft 434 kts 255°
2026-05-07 12:39 40.95492 47.12380 38110 ft 434 kts 255°
2026-05-07 12:39 40.94061 47.04609 38103 ft 435 kts 255°
2026-05-07 12:40 40.92623 46.96840 38111 ft 435 kts 255°
2026-05-07 12:40 40.91180 46.89066 38113 ft 436 kts 255°
2026-05-07 12:41 40.89804 46.81256 38116 ft 437 kts 258°
2026-05-07 12:41 40.89027 46.73289 38112 ft 437 kts 261°
2026-05-07 12:42 40.88305 46.65307 38098 ft 438 kts 261°
2026-05-07 12:42 40.87564 46.57324 38095 ft 438 kts 261°
2026-05-07 12:43 40.86813 46.49403 38086 ft 437 kts 261°
2026-05-07 12:43 40.86048 46.41434 38076 ft 437 kts 261°
2026-05-07 12:44 40.85667 46.37472 37936 ft 433 kts 261°
2026-05-07 12:44 40.85285 46.33526 37581 ft 434 kts 260°
2026-05-07 12:44 40.85025 46.30852 37337 ft 434 kts 260°
2026-05-07 12:44 40.84517 46.25631 37038 ft 431 kts 260°
2026-05-07 12:45 40.84258 46.22985 36927 ft 428 kts 260°
2026-05-07 12:45 40.83755 46.17849 36702 ft 424 kts 260°
2026-05-07 12:45 40.83499 46.15243 36549 ft 423 kts 260°
2026-05-07 12:45 40.83124 46.11451 36329 ft 421 kts 260°
2026-05-07 12:46 40.82745 46.07620 36130 ft 419 kts 260°
2026-05-07 12:46 40.82361 46.03764 35925 ft 417 kts 259°
2026-05-07 12:46 40.81983 45.99975 35764 ft 415 kts 259°
2026-05-07 12:46 40.81605 45.96201 35557 ft 414 kts 259°
2026-05-07 12:47 40.81228 45.92444 35352 ft 412 kts 259°
2026-05-07 12:47 40.80852 45.88702 35160 ft 410 kts 259°
2026-05-07 12:47 40.80481 45.85034 34993 ft 408 kts 259°
2026-05-07 12:47 40.80105 45.81333 34485 ft 407 kts 259°
2026-05-07 12:48 40.79729 45.77633 33913 ft 406 kts 259°
2026-05-07 12:48 40.79354 45.73954 33339 ft 403 kts 259°
2026-05-07 12:48 40.78981 45.70313 32813 ft 399 kts 259°
2026-05-07 12:48 40.78610 45.66698 32303 ft 396 kts 259°
2026-05-07 12:49 40.78241 45.63117 31797 ft 392 kts 259°
2026-05-07 12:49 40.77875 45.59568 31292 ft 389 kts 259°
2026-05-07 12:49 40.77506 45.56047 30795 ft 385 kts 259°
2026-05-07 12:49 40.76958 45.52616 30326 ft 380 kts 252°
2026-05-07 12:50 40.76133 45.49326 29756 ft 377 kts 248°
2026-05-07 12:50 40.75144 45.46146 29218 ft 372 kts 244°
2026-05-07 12:50 40.73947 45.43152 28719 ft 367 kts 240°
2026-05-07 12:50 40.72694 45.40228 28209 ft 365 kts 240°
2026-05-07 12:51 40.71441 45.37337 27693 ft 363 kts 239°
2026-05-07 12:51 40.70191 45.34455 27220 ft 360 kts 239°
2026-05-07 12:51 40.68955 45.31593 26721 ft 358 kts 240°
2026-05-07 12:51 40.67735 45.28759 26337 ft 353 kts 240°
2026-05-07 12:52 40.66530 45.25956 25931 ft 350 kts 240°
2026-05-07 12:52 40.65334 45.23174 25446 ft 349 kts 240°
2026-05-07 12:52 40.64140 45.20396 24980 ft 348 kts 240°
2026-05-07 12:52 40.62941 45.17608 24289 ft 353 kts 240°
2026-05-07 12:53 40.61731 45.14796 23385 ft 348 kts 240°
2026-05-07 12:53 40.60555 45.12064 22363 ft 338 kts 239°
2026-05-07 12:53 40.59410 45.09406 21449 ft 330 kts 239°
2026-05-07 12:53 40.58280 45.06787 20515 ft 328 kts 239°
2026-05-07 12:54 40.57151 45.04171 19645 ft 330 kts 239°
2026-05-07 12:54 40.56013 45.01539 18786 ft 331 kts 239°
2026-05-07 12:54 40.54874 44.98908 17893 ft 331 kts 239°
2026-05-07 12:54 40.53510 44.96507 16899 ft 328 kts 224°
2026-05-07 12:55 40.51693 44.94735 15841 ft 325 kts 209°
2026-05-07 12:55 40.49631 44.93539 14724 ft 323 kts 202°
2026-05-07 12:55 40.47536 44.92512 13637 ft 320 kts 201°
2026-05-07 12:55 40.45452 44.91513 12482 ft 318 kts 201°
2026-05-07 12:56 40.43415 44.90537 11819 ft 303 kts 201°
2026-05-07 12:56 40.41505 44.89617 11401 ft 285 kts 201°
2026-05-07 12:56 40.39701 44.88741 11262 ft 264 kts 201°
2026-05-07 12:56 40.38052 44.87939 11090 ft 242 kts 202°
2026-05-07 12:57 40.36549 44.87206 10817 ft 226 kts 202°
2026-05-07 12:57 40.35108 44.86501 10649 ft 216 kts 201°
2026-05-07 12:57 40.33679 44.85800 10543 ft 222 kts 202°
2026-05-07 12:57 40.32209 44.85078 10308 ft 229 kts 201°
2026-05-07 12:58 40.30710 44.84343 10075 ft 230 kts 201°
2026-05-07 12:58 40.29218 44.83611 9861 ft 228 kts 201°
2026-05-07 12:58 40.27744 44.82889 9639 ft 224 kts 202°
2026-05-07 12:58 40.26289 44.82176 9436 ft 222 kts 202°
2026-05-07 12:59 40.24846 44.81470 9240 ft 221 kts 202°
2026-05-07 12:59 40.23399 44.80761 9070 ft 223 kts 202°
2026-05-07 12:59 40.21942 44.80048 8860 ft 224 kts 201°
2026-05-07 12:59 40.20481 44.79334 8677 ft 224 kts 201°
2026-05-07 13:00 40.19031 44.78627 8476 ft 221 kts 201°
2026-05-07 13:00 40.17599 44.77928 8288 ft 218 kts 201°
2026-05-07 13:00 40.16201 44.77197 8095 ft 213 kts 211°
2026-05-07 13:00 40.15202 44.75825 7985 ft 208 kts 243°
2026-05-07 13:01 40.14826 44.74041 7879 ft 201 kts 265°
2026-05-07 13:01 40.14795 44.72253 7886 ft 195 kts 268°
2026-05-07 13:01 40.14805 44.70499 7751 ft 196 kts 269°
2026-05-07 13:01 40.14811 44.68717 7484 ft 193 kts 269°
2026-05-07 13:02 40.14814 44.66988 7168 ft 186 kts 269°
2026-05-07 13:02 40.14815 44.65340 6862 ft 176 kts 269°
2026-05-07 13:02 40.14816 44.63792 6590 ft 165 kts 269°
2026-05-07 13:02 40.14815 44.62356 6326 ft 151 kts 269°
2026-05-07 13:03 40.14813 44.60996 6138 ft 150 kts 268°
2026-05-07 13:03 40.14810 44.59604 5919 ft 156 kts 269°
2026-05-07 13:03 40.14815 44.58185 5645 ft 155 kts 268°
2026-05-07 13:03 40.14809 44.56775 5345 ft 155 kts 267°
2026-05-07 13:04 40.14804 44.55412 5155 ft 151 kts 268°
2026-05-07 13:04 40.14802 44.54050 4937 ft 150 kts 268°
2026-05-07 13:04 40.14794 44.52693 4684 ft 148 kts 268°
2026-05-07 13:04 40.14785 44.51350 4461 ft 145 kts 269°
2026-05-07 13:05 40.14779 44.50022 4233 ft 148 kts 268°
2026-05-07 13:05 40.14771 44.48681 3975 ft 146 kts 269°
2026-05-07 13:05 40.14770 44.47333 3820 ft 150 kts 268°
2026-05-07 13:05 40.14758 44.45970 3548 ft 149 kts 268°
2026-05-07 13:06 40.14749 44.44646 3326 ft 141 kts 269°
2026-05-07 13:06 40.14755 44.43383 3110 ft 137 kts 269°
2026-05-07 13:06 40.14746 44.42133 2928 ft 139 kts 268°
2026-05-07 13:06 40.14737 44.40894 2845 ft 127 kts 266°
2026-05-07 13:07 40.14727 44.39943 2843 ft 83 kts 270°
2026-05-07 13:07 40.14725 44.39393 2840 ft 38 kts 270°
2026-05-07 13:07 40.14723 44.39072 2842 ft 33 kts 269°
2026-05-07 13:07 40.14722 44.38792 2845 ft 30 kts 269°
2026-05-07 13:08 40.14720 44.38525 2847 ft 29 kts 269°
2026-05-07 13:08 40.14719 44.38313 2845 ft 12 kts 276°
2026-05-07 13:08 40.14784 44.38250 2842 ft 12 kts 353°
2026-05-07 13:08 40.14864 44.38291 2843 ft 14 kts 31°
2026-05-07 13:09 40.14956 44.38373 2842 ft 17 kts 51°
2026-05-07 13:09 40.14971 44.38522 2842 ft 18 kts 90°
2026-05-07 13:09 40.14970 44.38715 2842 ft 23 kts 90°
2026-05-07 13:09 40.14971 44.38924 2842 ft 23 kts 89°
2026-05-07 13:10 40.14973 44.39133 2841 ft 23 kts 90°
2026-05-07 13:10 40.14974 44.39341 2841 ft 23 kts 89°
2026-05-07 13:10 40.14976 44.39550 2841 ft 23 kts 89°
2026-05-07 13:10 40.14977 44.39759 2843 ft 23 kts 89°
2026-05-07 13:11 40.14985 44.39916 2844 ft 9 kts 66°
2026-05-07 13:11 40.15039 44.39945 2843 ft 9 kts
2026-05-07 13:11 40.15077 44.39945 2843 ft 1 kts 359°
2026-05-07 13:11 40.15080 44.39945 2843 ft 0 kts 360°